WGS F2 (USA 204)

Last updated on Sun Apr 12 2026 00:02:51 GMT+0000 (Coordinated Universal Time)

1 34713U 09017A 26101.23030770 .00000000 00000+0 00000+0 0 9995 2 34713 0.0153 208.2512 0000345 263.8161 227.8038 1.00271049 44943
UTC large
Height (km)
Speed (km/s)
/
Latitude / Longitude
Inclination (degrees)
Orbital Period (minutes)
Azimuth
Elevation
Range (km)
Doppler Factor

Next 0 passes for location: London (51.5072 / 0.1276)

Sorry there are no passes over London.
WGS F2 (USA 204)